AA7F Weather Reports


Display with metric or nautical units.
time (UTC)temp
F
wind
direction
speed
MPH
gust
MPH
rain 1hr
in
rain 24hr
in
rain mn
in
humidity
%
barometer
mb
20220123050605 29 67 1.0 2.0 0.00 0.00 0.00 99 1033.1
20220123050104 29 62 2.0 5.0 0.00 0.00 0.00 99 1033.2
20220123045604 30 107 3.0 7.0 0.00 0.00 0.00 99 1033.3
20220123045103 31 68 5.0 6.0 0.00 0.00 0.00 99 1033.0
20220123044601 29 75 2.0 5.0 0.00 0.00 0.00 99 1033.1
20220123044100 29 72 2.0 3.0 0.00 0.00 0.00 99 1033.0
20220123043558 29 86 3.0 5.0 0.00 0.00 0.00 99 1033.2
20220123043057 30 66 1.0 1.0 0.00 0.00 0.00 99 1033.3
20220123042558 30 62 1.0 2.0 0.00 0.00 0.00 99 1033.4
20220123042056 30 55 0.0 1.0 0.00 0.00 0.00 99 1033.4
20220123041555 30 55 0.0 1.0 0.00 0.00 0.00 99 1033.4
20220123041054 30 64 1.0 2.0 0.00 0.00 0.00 99 1033.4
20220123040554 30 60 1.0 2.0 0.00 0.00 0.00 99 1033.6
20220123040053 30 52 2.0 2.0 0.00 0.00 0.00 99 1033.6
20220123035552 30 42 1.0 2.0 0.00 0.00 0.00 99 1033.7
20220123035052 30 38 1.0 2.0 0.00 0.00 0.00 99 1033.6
20220123034550 30 36 0.0 1.0 0.00 0.00 0.00 99 1033.7
20220123034049 30 25 1.0 1.0 0.00 0.00 0.00 99 1034.0
20220123033550 30 29 1.0 2.0 0.00 0.00 0.00 99 1033.6
20220123033049 31 23 1.0 2.0 0.00 0.00 0.00 99 1033.7
20220123032550 31 31 1.0 1.0 0.00 0.00 0.00 99 1033.6
20220123032048 31 32 0.0 1.0 0.00 0.00 0.00 99 1033.5
20220123031548 31 19 1.0 1.0 0.00 0.00 0.00 99 1033.4
20220123031047 31 23 1.0 2.0 0.00 0.00 0.00 99 1033.6
20220123030545 31 7 1.0 2.0 0.00 0.00 0.00 99 1033.6
20220123030044 31 354 1.0 1.0 0.00 0.00 0.00 98 1033.6
20220123025543 31 49 1.0 1.0 0.00 0.00 0.00 98 1033.5
20220123025042 31 57 1.0 2.0 0.00 0.00 0.00 99 1033.6
20220123024540 31 45 3.0 3.0 0.00 0.00 0.00 98 1033.5
20220123024039 31 49 1.0 1.0 0.00 0.00 0.00 98 1033.4
20220123023539 31 14 1.0 1.0 0.00 0.00 0.00 98 1033.6
20220123023037 32 25 1.0 2.0 0.00 0.00 0.00 98 1033.6
20220123022536 32 12 1.0 2.0 0.00 0.00 0.00 98 1033.5
20220123022035 32 38 0.0 0.0 0.00 0.00 0.00 96 1033.5
20220123021534 32 42 0.0 0.0 0.00 0.00 0.00 96 1033.3
20220123021033 33 42 0.0 0.0 0.00 0.00 0.00 94 1033.4
20220123020531 33 42 0.0 1.0 0.00 0.00 0.00 93 1033.5
20220123020031 33 38 1.0 2.0 0.00 0.00 0.00 95 1033.4
20220123015529 33 32 1.0 2.0 0.00 0.00 0.00 96 1033.4
20220123015028 33 24 1.0 1.0 0.00 0.00 0.00 96 1033.4
20220123014527 33 340 1.0 1.0 0.00 0.00 0.00 95 1033.3
20220123014027 33 55 0.0 1.0 0.00 0.00 0.00 91 1033.5
20220123013528 33 59 1.0 2.0 0.00 0.00 0.00 92 1033.2
20220123013026 34 53 1.0 1.0 0.00 0.00 0.00 92 1033.4
20220123012525 34 42 1.0 1.0 0.00 0.00 0.00 93 1033.2
20220123012024 34 29 1.0 1.0 0.00 0.00 0.00 92 1033.3
20220123011523 34 23 1.0 1.0 0.00 0.00 0.00 91 1033.3
20220123011021 35 322 2.0 2.0 0.00 0.00 0.00 89 1033.4
20220123010520 35 1 1.0 2.0 0.00 0.00 0.00 87 1033.5
20220123010018 36 79 1.0 2.0 0.00 0.00 0.00 85 1033.4
20220123005518 36 45 1.0 2.0 0.00 0.00 0.00 84 1033.1
20220123005018 36 53 2.0 3.0 0.00 0.00 0.00 84 1033.2
20220123004516 36 57 1.0 2.0 0.00 0.00 0.00 84 1033.1
20220123004014 37 53 0.0 1.0 0.00 0.00 0.00 84 1033.2
20220123003513 37 58 0.0 1.0 0.00 0.00 0.00 82 1033.1
20220123003013 37 52 1.0 2.0 0.00 0.00 0.00 82 1033.1
20220123002512 37 55 1.0 2.0 0.00 0.00 0.00 81 1033.1
20220123002012 38 39 0.0 1.0 0.00 0.00 0.00 81 1033.0
20220123001511 39 44 0.0 0.0 0.00 0.00 0.00 80 1033.0
20220123001009 39 59 0.0 2.0 0.00 0.00 0.00 79 1033.1
20220123000507 40 78 1.0 2.0 0.00 0.00 0.00 77 1033.4
20220123000006 41 85 1.0 2.0 0.00 0.00 0.00 76 1033.4
20220122235505 41 63 1.0 2.0 0.00 0.00 0.00 77 1033.6
20220122235003 41 66 1.0 2.0 0.00 0.00 0.00 77 1033.4
20220122234504 41 63 2.0 3.0 0.00 0.00 0.00 76 1033.8
20220122234003 41 105 3.0 5.0 0.00 0.00 0.00 77 1033.5
20220122233502 41 63 1.0 5.0 0.00 0.00 0.00 79 1033.4
20220122233000 41 122 4.0 6.0 0.00 0.00 0.00 77 1033.4
20220122232459 41 115 3.0 6.0 0.00 0.00 0.00 78 1033.4
20220122231958 41 97 3.0 6.0 0.00 0.00 0.00 77 1033.1
20220122231457 41 90 4.0 6.0 0.00 0.00 0.00 77 1032.9
20220122230956 41 53 5.0 6.0 0.00 0.00 0.00 77 1032.9
20220122230455 41 75 3.0 6.0 0.00 0.00 0.00 76 1033.0
20220122225954 41 107 5.0 7.0 0.00 0.00 0.00 77 1032.8
20220122225453 41 114 5.0 8.0 0.00 0.00 0.00 78 1032.8
20220122224951 41 91 4.0 6.0 0.00 0.00 0.00 78 1032.9
20220122224450 40 122 6.0 7.0 0.00 0.00 0.00 79 1033.0
20220122223948 39 90 3.0 8.0 0.00 0.00 0.00 81 1033.0
20220122223448 39 78 6.0 7.0 0.00 0.00 0.00 80 1033.1
20220122222948 40 96 5.0 7.0 0.00 0.00 0.00 80 1033.0
20220122222447 40 109 5.0 9.0 0.00 0.00 0.00 80 1032.9
20220122221945 41 127 9.0 9.0 0.00 0.00 0.00 79 1032.8
20220122221444 41 125 5.0 11.0 0.00 0.00 0.00 79 1032.9
20220122220942 41 138 4.0 9.0 0.00 0.00 0.00 79 1032.7
20220122220441 41 108 6.0 9.0 0.00 0.00 0.00 79 1033.0
20220122215939 41 128 7.0 9.0 0.00 0.00 0.00 81 1033.1
20220122215438 41 123 8.0 10.0 0.00 0.00 0.00 80 1032.8
20220122214939 41 92 6.0 7.0 0.00 0.00 0.00 79 1032.9
20220122214438 40 136 5.0 7.0 0.00 0.00 0.00 83 1033.1
20220122213936 41 158 5.0 8.0 0.00 0.00 0.00 79 1032.9
20220122213436 41 89 5.0 8.0 0.00 0.00 0.00 80 1032.9
20220122212934 40 104 6.0 7.0 0.00 0.00 0.00 82 1032.8
20220122212433 39 75 5.0 10.0 0.00 0.00 0.00 83 1032.9
20220122211933 39 115 8.0 10.0 0.00 0.00 0.00 82 1033.1
20220122211433 40 151 7.0 10.0 0.00 0.00 0.00 82 1033.2
20220122210932 40 133 7.0 13.0 0.00 0.00 0.00 83 1033.4
20220122210431 39 124 7.0 14.0 0.00 0.00 0.00 83 1033.5
20220122205929 40 138 5.0 11.0 0.00 0.00 0.00 83 1033.5
20220122205430 39 122 5.0 8.0 0.00 0.00 0.00 83 1033.6
20220122204929 39 142 9.0 13.0 0.00 0.00 0.00 84 1033.6
20220122204428 39 78 6.0 10.0 0.00 0.00 0.00 84 1033.4
20220122203926 39 108 7.0 13.0 0.00 0.00 0.00 84 1033.6
20220122203427 38 128 8.0 14.0 0.00 0.00 0.00 85 1033.4
20220122202925 39 122 7.0 11.0 0.00 0.00 0.00 86 1033.6
20220122202426 38 109 5.0 11.0 0.00 0.00 0.00 85 1033.8
20220122201924 38 131 8.0 11.0 0.00 0.00 0.00 86 1033.6
20220122201423 38 120 8.0 14.0 0.00 0.00 0.00 86 1033.6
20220122200922 38 110 7.0 11.0 0.00 0.00 0.00 87 1033.7
20220122200421 38 101 8.0 11.0 0.00 0.00 0.00 87 1033.7
20220122195917 37 90 8.0 13.0 0.00 0.00 0.00 87 1033.8
20220122195416 37 104 10.0 14.0 0.00 0.00 0.00 86 1033.7
20220122194914 37 128 11.0 14.0 0.00 0.00 0.00 88 1034.0
20220122194414 37 122 10.0 13.0 0.00 0.00 0.00 88 1033.9
20220122193912 37 115 6.0 9.0 0.00 0.00 0.00 89 1034.0
20220122193411 37 84 7.0 11.0 0.00 0.00 0.00 88 1034.1
20220122192909 37 113 7.0 9.0 0.00 0.00 0.00 90 1034.2
20220122192409 37 131 7.0 10.0 0.00 0.00 0.00 91 1034.2
20220122191908 36 102 9.0 11.0 0.00 0.00 0.00 90 1034.2
20220122191408 36 125 11.0 13.0 0.00 0.00 0.00 91 1034.3
20220122190908 35 79 9.0 14.0 0.00 0.00 0.00 92 1034.4
20220122190408 35 127 7.0 11.0 0.00 0.00 0.00 93 1034.4
20220122185906 34 122 9.0 11.0 0.00 0.00 0.00 94 1034.9
20220122185404 34 132 9.0 10.0 0.00 0.00 0.00 94 1035.1
20220122184904 33 141 11.0 11.0 0.00 0.00 0.00 94 1035.3
20220122184403 33 109 8.0 13.0 0.00 0.00 0.00 95 1035.4
20220122183902 32 111 8.0 13.0 0.00 0.00 0.00 95 1035.4
20220122183400 32 111 6.0 10.0 0.00 0.00 0.00 96 1035.5
20220122182859 32 90 4.0 11.0 0.00 0.00 0.00 96 1035.4
20220122182358 31 109 9.0 11.0 0.00 0.00 0.00 96 1035.4
20220122181857 31 133 7.0 10.0 0.00 0.00 0.00 97 1035.2
20220122181355 31 100 8.0 11.0 0.00 0.00 0.00 97 1035.0
20220122180854 31 92 7.0 10.0 0.00 0.00 0.00 97 1035.2
20220122180353 31 81 8.0 9.0 0.00 0.00 0.00 97 1035.2
20220122175852 31 79 5.0 9.0 0.00 0.00 0.00 97 1035.1
20220122175351 31 108 8.0 10.0 0.00 0.00 0.00 97 1034.9
20220122174851 31 113 7.0 10.0 0.00 0.00 0.00 97 1034.9
20220122174351 31 122 7.0 10.0 0.00 0.00 0.00 97 1035.0
20220122173849 30 109 7.0 10.0 0.00 0.00 0.00 97 1034.7
20220122173349 30 119 6.0 10.0 0.00 0.00 0.00 97 1035.0
20220122172847 30 115 7.0 9.0 0.00 0.00 0.00 97 1034.7
20220122172346 30 107 8.0 11.0 0.00 0.00 0.00 97 1034.7
20220122171845 30 123 6.0 9.0 0.00 0.00 0.00 97 1034.6
20220122171344 30 108 6.0 9.0 0.00 0.00 0.00 97 1034.7
20220122170844 30 94 7.0 13.0 0.00 0.00 0.00 97 1034.5
20220122170343 30 115 7.0 10.0 0.00 0.00 0.00 97 1034.4
20220122165841 30 54 7.0 11.0 0.00 0.00 0.00 97 1034.4
20220122165339 30 96 8.0 9.0 0.00 0.00 0.00 97 1034.4
20220122164839 29 100 7.0 11.0 0.00 0.00 0.00 97 1034.4
20220122164338 29 117 5.0 9.0 0.00 0.00 0.00 97 1034.6
20220122163836 29 110 7.0 10.0 0.00 0.00 0.00 97 1034.5
20220122163335 29 78 7.0 9.0 0.00 0.00 0.00 97 1034.4
20220122162835 29 94 5.0 11.0 0.00 0.00 0.00 97 1034.4
20220122162335 29 89 5.0 9.0 0.00 0.00 0.00 97 1034.2
20220122161834 29 77 5.0 10.0 0.00 0.00 0.00 97 1034.1
20220122161333 29 103 7.0 10.0 0.00 0.00 0.00 97 1034.1
20220122160833 29 77 7.0 10.0 0.00 0.00 0.00 97 1034.0
20220122160334 29 74 7.0 10.0 0.00 0.00 0.00 97 1034.2
20220122155832 29 59 7.0 9.0 0.00 0.00 0.00 97 1034.1
20220122155331 29 62 5.0 9.0 0.00 0.00 0.00 97 1034.2
20220122154830 29 90 6.0 9.0 0.00 0.00 0.00 98 1034.2
20220122154329 29 76 6.0 7.0 0.00 0.00 0.00 98 1034.1
20220122153830 29 98 6.0 8.0 0.00 0.00 0.00 98 1033.9
20220122153328 29 78 5.0 9.0 0.00 0.00 0.00 98 1033.8
20220122152826 29 118 5.0 8.0 0.00 0.00 0.00 98 1034.1
20220122152325 29 60 3.0 8.0 0.00 0.00 0.00 98 1033.9
20220122151825 29 68 5.0 9.0 0.00 0.00 0.00 99 1034.2
20220122151323 29 113 4.0 9.0 0.00 0.00 0.00 99 1033.7
20220122150823 29 101 6.0 9.0 0.00 0.00 0.00 99 1033.8
20220122150321 30 102 5.0 10.0 0.00 0.00 0.00 99 1033.9
20220122145820 29 66 5.0 9.0 0.00 0.00 0.00 99 1033.8
20220122145319 30 81 5.0 9.0 0.00 0.00 0.00 99 1033.7
20220122144819 29 42 4.0 10.0 0.00 0.00 0.00 99 1033.5
20220122144317 30 48 7.0 8.0 0.00 0.00 0.00 99 1033.6
20220122143816 29 96 5.0 8.0 0.00 0.00 0.00 99 1033.2
20220122143315 30 109 4.0 8.0 0.00 0.00 0.00 99 1033.2
20220122142813 30 90 7.0 8.0 0.00 0.00 0.00 99 1033.2
20220122142312 30 77 5.0 9.0 0.00 0.00 0.00 99 1033.2
20220122141812 30 97 5.0 8.0 0.00 0.00 0.00 99 1033.2
20220122141311 30 110 6.0 8.0 0.00 0.00 0.00 99 1033.2
20220122140810 30 58 4.0 7.0 0.00 0.00 0.00 99 1033.1
20220122140309 30 94 6.0 9.0 0.00 0.00 0.00 99 1033.2
20220122135807 30 96 7.0 11.0 0.00 0.00 0.00 99 1033.2
20220122135306 30 92 7.0 9.0 0.00 0.00 0.00 99 1033.2
20220122134804 30 84 6.0 8.0 0.00 0.00 0.00 99 1033.0
20220122134303 30 83 8.0 10.0 0.00 0.00 0.00 99 1033.1
20220122133802 30 101 7.0 9.0 0.00 0.00 0.00 99 1033.1
20220122133301 30 117 4.0 8.0 0.00 0.00 0.00 99 1033.0
20220122132801 30 50 5.0 8.0 0.00 0.00 0.00 99 1032.9
20220122132300 31 71 6.0 8.0 0.00 0.00 0.00 98 1033.0
20220122131758 31 79 4.0 10.0 0.00 0.00 0.00 98 1033.0
20220122131259 31 138 6.0 8.0 0.00 0.00 0.00 99 1033.0
20220122130757 31 80 5.0 6.0 0.00 0.00 0.00 99 1033.0
20220122130255 30 80 4.0 7.0 0.00 0.00 0.00 99 1033.1
20220122125754 30 64 4.0 7.0 0.00 0.00 0.00 99 1033.3
20220122125253 31 111 4.0 6.0 0.00 0.00 0.00 99 1033.3
20220122124751 31 71 4.0 6.0 0.00 0.00 0.00 99 1033.2
20220122124249 31 80 4.0 9.0 0.00 0.00 0.00 99 1033.1
20220122123748 30 131 6.0 8.0 0.00 0.00 0.00 99 1033.1
20220122123248 30 86 4.0 8.0 0.00 0.00 0.00 99 1033.2
20220122122746 31 86 4.0 6.0 0.00 0.00 0.00 99 1033.4
20220122122245 30 73 3.0 6.0 0.00 0.00 0.00 99 1033.4
20220122121745 30 140 4.0 8.0 0.00 0.00 0.00 99 1033.5
20220122121244 30 88 6.0 8.0 0.00 0.00 0.00 99 1033.3
20220122120744 30 79 5.0 8.0 0.00 0.00 0.00 99 1033.3
20220122120242 31 137 5.0 8.0 0.00 0.00 0.00 99 1033.1
20220122115741 31 75 4.0 7.0 0.00 0.00 0.00 98 1033.2
20220122115240 32 51 5.0 7.0 0.00 0.00 0.00 98 1033.1
20220122114739 32 111 5.0 8.0 0.00 0.00 0.00 98 1032.7
20220122114238 32 67 7.0 10.0 0.00 0.00 0.00 98 1033.0
20220122113737 31 55 6.0 15.0 0.00 0.00 0.00 99 1033.0
20220122113236 31 106 5.0 9.0 0.00 0.00 0.00 98 1032.9
20220122112734 32 136 6.0 8.0 0.00 0.00 0.00 98 1032.8
20220122112233 32 59 6.0 8.0 0.00 0.00 0.00 98 1032.9
20220122111729 32 63 8.0 13.0 0.00 0.00 0.00 98 1032.9
20220122111227 32 83 6.0 11.0 0.00 0.00 0.00 98 1032.7
20220122110728 32 103 9.0 11.0 0.00 0.00 0.00 98 1032.8
20220122110226 32 75 7.0 15.0 0.00 0.00 0.00 98 1032.8
20220122105725 32 113 7.0 16.0 0.00 0.00 0.00 98 1032.7
20220122105224 31 92 7.0 11.0 0.00 0.00 0.00 98 1032.6
20220122104723 32 117 6.0 10.0 0.00 0.00 0.00 99 1032.8
20220122104222 32 93 11.0 13.0 0.00 0.00 0.00 99 1032.8
20220122103720 31 56 6.0 11.0 0.00 0.00 0.00 99 1032.8
20220122103219 31 68 4.0 8.0 0.00 0.00 0.00 99 1032.7
20220122102718 31 128 8.0 11.0 0.00 0.00 0.00 99 1032.8
20220122102218 31 128 5.0 11.0 0.00 0.00 0.00 99 1032.9
20220122101717 31 121 9.0 13.0 0.00 0.00 0.00 99 1032.8
20220122101217 31 120 8.0 11.0 0.00 0.00 0.00 99 1033.0
20220122100717 32 112 7.0 15.0 0.00 0.00 0.00 99 1032.6
20220122100215 32 104 9.0 13.0 0.00 0.00 0.00 99 1032.7
20220122095714 31 89 10.0 15.0 0.00 0.00 0.00 99 1032.5
20220122095212 31 71 8.0 10.0 0.00 0.00 0.00 99 1032.8
20220122094712 31 91 8.0 14.0 0.00 0.00 0.00 99 1032.7
20220122094211 31 132 7.0 9.0 0.00 0.00 0.00 99 1033.0
20220122093711 31 76 9.0 11.0 0.00 0.00 0.00 99 1032.7
20220122093211 31 63 6.0 9.0 0.00 0.00 0.00 99 1032.7
20220122092711 31 61 5.0 11.0 0.00 0.00 0.00 99 1032.8
20220122092210 31 79 4.0 10.0 0.00 0.00 0.00 99 1032.8
20220122091711 31 112 8.0 10.0 0.00 0.00 0.00 99 1032.7
20220122091209 31 92 5.0 10.0 0.00 0.00 0.00 99 1032.7
20220122090708 30 75 6.0 9.0 0.00 0.00 0.00 99 1032.5
20220122090207 31 110 7.0 9.0 0.00 0.00 0.00 99 1032.5
20220122085706 31 91 8.0 10.0 0.00 0.00 0.00 99 1032.5
20220122085205 31 109 7.0 10.0 0.00 0.00 0.00 99 1032.3
20220122084706 31 49 8.0 13.0 0.00 0.00 0.00 99 1032.3
20220122084205 31 94 8.0 10.0 0.00 0.00 0.00 99 1032.3
20220122083703 31 99 9.0 13.0 0.00 0.00 0.00 99 1032.5
20220122083201 31 108 8.0 13.0 0.00 0.00 0.00 99 1032.2
20220122082659 31 96 8.0 13.0 0.00 0.00 0.00 99 1032.1
20220122082158 31 68 9.0 10.0 0.00 0.00 0.00 99 1032.3
20220122081658 31 125 6.0 11.0 0.00 0.00 0.00 99 1032.6
20220122081157 31 118 9.0 11.0 0.00 0.00 0.00 99 1032.6
20220122080658 31 130 8.0 13.0 0.00 0.00 0.00 99 1032.6
20220122080157 31 112 8.0 13.0 0.00 0.00 0.00 99 1032.5
20220122075656 32 112 9.0 13.0 0.00 0.00 0.00 99 1032.8
20220122075157 32 80 8.0 11.0 0.00 0.00 0.00 99 1032.6
20220122074655 32 73 7.0 14.0 0.00 0.00 0.00 99 1032.5
20220122074154 32 126 7.0 13.0 0.00 0.00 0.00 98 1032.7
20220122073653 32 103 7.0 14.0 0.00 0.00 0.00 98 1032.6
20220122073153 32 125 12.0 15.0 0.00 0.00 0.00 97 1032.2
20220122072652 32 70 8.0 13.0 0.00 0.00 0.00 98 1032.6
20220122072151 32 112 10.0 14.0 0.00 0.00 0.00 97 1032.8
20220122071652 33 78 10.0 16.0 0.00 0.00 0.00 97 1032.5
20220122071151 33 106 9.0 13.0 0.00 0.00 0.00 96 1032.8
20220122070649 33 95 9.0 13.0 0.00 0.00 0.00 96 1032.7
20220122070147 33 88 9.0 13.0 0.00 0.00 0.00 96 1032.8
20220122065646 33 48 5.0 9.0 0.00 0.00 0.00 96 1032.6
20220122065145 33 81 6.0 11.0 0.00 0.00 0.00 96 1032.8
20220122064644 33 99 5.0 11.0 0.00 0.00 0.00 96 1032.9
20220122064143 33 90 7.0 10.0 0.00 0.00 0.00 95 1032.8
20220122063642 33 96 6.0 11.0 0.00 0.00 0.00 95 1033.0
20220122063140 33 72 9.0 13.0 0.00 0.00 0.00 96 1032.9
20220122062639 33 76 7.0 13.0 0.00 0.00 0.00 96 1032.9
20220122062138 33 54 7.0 9.0 0.00 0.00 0.00 96 1033.1
20220122061637 33 86 5.0 7.0 0.00 0.00 0.00 96 1033.1
20220122061135 33 66 6.0 9.0 0.00 0.00 0.00 96 1033.0
20220122060635 33 81 5.0 11.0 0.00 0.00 0.00 96 1033.2
20220122060134 33 53 7.0 8.0 0.00 0.00 0.00 95 1033.1
20220122055633 34 78 6.0 10.0 0.00 0.00 0.00 95 1033.1
20220122055134 33 98 7.0 9.0 0.00 0.00 0.00 96 1033.2
20220122054632 33 61 7.0 9.0 0.00 0.00 0.00 95 1033.0
20220122054131 33 57 6.0 9.0 0.00 0.00 0.00 96 1033.0
20220122053631 33 64 4.0 9.0 0.00 0.00 0.00 96 1032.8
20220122053130 33 62 7.0 11.0 0.00 0.00 0.00 98 1033.0
20220122052629 33 81 5.0 7.0 0.00 0.00 0.00 96 1032.7
20220122052128 32 103 5.0 9.0 0.00 0.00 0.00 99 1032.9
20220122051628 35 87 4.0 7.0 0.00 0.00 0.00 93 1032.8
20220122051127 35 91 5.0 11.0 0.00 0.00 0.00 92 1032.8